EHI
3 8 19 23 20 16 14 11 7 6 5 4 3 2 2 2 2 1 1 1 1 1 1 2 4 3 1 0 0 0 0 0 0 0 0 1 1 1 3 4 3 1 0
4 8 16 20 18 16 14 10 7 4 4 3 3 2 2 2 2 1 0 0 1 1 1 1 1 1 0 0 0 0 0 1 1 1 0 1 2 1 2 3 2 0 0
6 9 14 17 17 15 12 9 6 4 3 3 3 2 2 2 2 1 0 0 0 0 0 0 0 0 0 0 0 0 1 2 4 3 1 0 1 1 1 1 1 0 0
7 9 13 15 16 14 11 9 6 4 3 3 2 1 1 2 1 0 0 0 0 0 0 0 1 1 1 0 0 0 2 4 5 4 1 0 0 1 1 1 0 0 0
8 9 13 16 17 15 13 10 7 4 3 2 1 0 1 1 1 0 0 0 0 0 0 0 2 2 1 0 0 1 2 3 3 2 1 0 0 1 2 1 0 0 0
8 10 14 20 21 17 14 12 9 5 3 2 2 1 1 1 1 1 1 0 0 0 0 0 1 2 1 1 1 2 2 1 1 0 0 0 0 1 2 1 1 1 1
8 9 15 21 22 18 14 12 11 8 6 4 4 3 2 2 2 2 2 1 1 0 0 0 0 1 2 3 3 3 2 1 0 0 0 0 0 2 3 3 3 2 1
7 8 12 16 17 14 13 12 13 12 9 5 4 3 3 3 3 3 2 1 1 0 0 0 0 1 3 4 5 5 3 1 0 0 0 0 1 5 7 7 5 3 1
6 6 8 10 10 10 11 14 16 15 12 7 4 3 3 3 3 3 1 1 1 0 0 0 0 1 3 4 6 6 3 1 0 0 0 0 2 7 9 7 4 2 1
6 7 6 6 6 6 10 14 16 16 13 8 5 4 3 3 3 3 2 2 2 1 0 0 1 2 3 4 6 7 5 1 0 0 0 1 4 8 8 5 2 1 1
10 7 6 6 5 4 6 10 11 10 9 7 6 5 4 3 3 3 3 3 4 3 2 1 2 3 3 3 5 6 5 1 0 0 0 2 7 9 6 2 1 0 0
12 8 6 6 5 4 5 5 5 4 5 5 5 4 3 3 3 2 2 4 5 5 4 3 3 3 2 2 2 3 2 1 0 0 1 3 7 7 4 1 1 0 0
12 9 6 5 6 6 5 4 3 3 4 4 4 3 3 3 1 1 1 2 3 3 3 2 2 1 1 0 0 0 0 0 0 0 1 3 5 4 2 1 1 0 0
16 13 9 8 8 9 7 5 5 5 4 4 3 3 3 3 1 0 0 0 1 1 1 0 0 0 0 0 0 0 1 1 0 0 1 3 5 4 3 3 2 1 0
22 21 17 13 13 13 11 8 7 6 4 4 4 4 3 3 2 1 0 0 0 0 0 0 0 0 0 0 0 1 2 2 1 1 1 3 6 5 4 4 3 2 1
30 29 25 20 18 17 14 12 9 7 5 4 5 5 4 4 3 3 2 1 0 0 0 0 0 0 0 0 0 1 2 3 3 2 1 2 5 6 4 4 4 3 3
35 33 30 27 23 20 16 13 11 9 5 3 3 4 4 4 4 5 5 3 1 0 0 0 0 0 0 0 0 0 1 2 3 3 2 2 3 4 4 4 4 4 4
36 34 32 31 28 22 16 12 9 6 3 2 2 2 2 3 5 6 7 5 3 1 0 0 0 0 0 0 0 0 0 1 1 2 3 3 2 2 3 4 5 5 4
35 33 32 32 32 26 19 12 6 3 2 2 1 0 1 2 5 8 8 6 4 2 0 0 0 0 0 0 0 0 0 0 1 1 2 2 1 0 1 3 5 5 5
33 31 32 33 33 30 23 15 8 5 3 3 2 1 0 2 5 8 8 7 6 4 2 0 0 0 0 0 0 1 0 0 1 1 1 1 0 0 0 1 2 3 4
34 33 34 35 35 33 27 19 13 8 5 4 4 2 3 4 6 7 8 8 7 5 3 1 0 0 0 0 0 0 0 0 0 0 0 1 1 0 0 0 0 1 3
38 37 36 36 36 34 28 20 14 9 6 6 6 5 6 8 9 7 7 7 7 5 3 1 1 1 0 0 0 0 0 0 0 0 0 1 1 1 1 0 0 1 2
39 38 37 36 35 32 26 19 13 9 8 9 8 7 8 9 10 8 7 7 6 5 4 2 2 2 1 0 0 0 0 0 0 0 0 1 1 2 2 1 1 0 1
38 38 38 37 34 28 23 18 13 9 8 9 9 7 7 8 8 8 8 8 7 7 5 4 4 3 2 1 0 0 0 0 0 0 0 0 0 1 2 2 2 1 1
38 38 38 37 33 26 20 16 12 9 9 8 7 5 5 7 8 9 9 10 10 8 7 6 5 4 4 2 1 0 0 0 1 0 0 0 0 0 1 2 2 2 2
38 38 37 35 32 26 20 15 12 9 9 8 6 2 3 7 10 10 10 11 11 10 8 7 6 6 5 3 2 1 0 0 1 0 0 0 0 0 0 1 1 2 3
Wind_Speed
5 6 11 12 12 12 12 12 11 11 11 10 10 10 10 9 9 8 8 7 7 8 8 8 7 7 7 7 8 8 8 9 10 12 12 12 12 12 12 12 12 9 13
9 8 12 12 12 12 12 12 11 11 10 10 10 9 9 8 8 8 7 7 7 7 7 7 7 7 6 7 7 7 7 8 9 11 11 10 11 11 12 12 11 8 13
11 8 11 12 12 13 12 11 11 10 10 10 9 9 8 8 7 7 7 7 7 6 7 7 6 6 6 6 6 7 7 8 8 9 9 5 7 11 11 12 12 12 13
12 8 10 13 12 12 12 11 11 10 10 9 9 8 8 7 7 6 6 7 6 6 6 6 6 6 6 6 6 6 7 7 6 7 4 4 5 10 11 12 12 12 12
10 7 10 14 13 12 12 11 10 10 9 9 8 8 7 6 6 6 6 6 6 6 6 6 6 6 5 5 5 6 6 6 6 5 3 3 4 10 11 12 12 12 12
9 7 9 13 12 12 11 11 10 10 9 8 8 7 6 5 5 5 5 5 5 5 5 5 5 4 5 5 5 5 5 5 5 3 3 4 4 9 12 12 12 12 12
9 7 8 12 12 11 11 11 10 9 8 7 7 6 5 4 4 4 4 4 4 4 4 4 3 4 4 4 4 4 5 4 3 2 3 4 6 11 12 12 12 12 12
12 8 8 12 12 11 11 10 9 8 7 7 6 5 4 3 3 3 3 3 3 3 3 3 3 3 3 3 3 4 4 4 4 3 3 4 9 12 12 12 11 11 11
10 9 6 6 8 10 11 10 9 8 7 6 5 4 4 3 2 2 2 2 2 2 3 3 3 3 2 2 2 3 4 5 3 2 4 4 10 12 12 12 12 11 11
7 7 6 5 5 5 6 9 9 8 7 6 5 4 3 3 2 2 2 2 2 2 3 2 2 3 2 1 2 3 5 5 3 3 3 5 12 13 13 13 12 11 11
6 5 6 5 5 4 4 7 7 7 6 5 3 3 2 1 1 1 2 3 3 3 3 3 3 2 2 2 2 4 4 2 3 3 3 8 12 13 13 12 12 11 11
7 5 5 5 5 4 4 4 2 3 2 2 1 1 1 1 1 1 2 3 3 4 4 4 4 3 2 1 2 3 2 3 3 3 4 10 12 12 12 11 11 11 11
9 7 5 5 5 5 3 3 2 1 1 1 1 1 1 0 0 1 1 1 2 3 2 3 3 2 2 2 2 2 3 3 2 2 4 10 11 12 12 11 11 10 10
10 8 7 6 5 4 4 3 3 2 1 1 1 1 1 0 0 1 0 1 1 1 1 1 2 2 3 3 3 3 4 3 2 2 4 10 10 11 11 11 10 10 10
10 8 8 6 5 4 4 3 3 2 2 2 1 1 1 1 0 0 1 0 0 1 1 1 2 3 3 3 3 4 4 4 4 3 3 10 10 10 10 10 10 9 9
9 8 7 7 6 5 4 3 3 3 2 2 1 1 1 1 1 0 1 1 1 1 1 2 3 3 3 3 3 4 4 4 4 3 3 6 9 9 8 9 9 8 8
9 8 7 7 6 5 4 4 3 3 2 2 1 1 1 1 1 1 2 1 1 1 2 3 3 3 3 3 3 4 4 4 4 3 3 3 4 7 8 8 7 7 7
8 8 7 7 6 5 4 4 3 2 3 2 1 1 1 2 2 2 2 2 2 2 2 3 3 3 3 3 2 2 3 3 3 3 3 3 2 3 5 7 7 7 6
9 9 7 6 6 5 4 3 3 3 2 1 1 1 1 1 2 2 2 2 2 3 2 2 2 2 2 2 2 2 2 2 3 4 3 3 3 3 2 4 6 6 6
7 8 7 6 5 4 3 3 2 2 1 1 1 1 1 1 2 3 2 2 3 3 2 2 3 2 2 2 3 3 2 1 2 2 3 3 3 3 3 3 3 3 5
6 7 6 6 4 4 3 2 2 1 1 1 1 1 1 1 2 3 2 2 2 2 2 2 2 3 2 2 3 3 3 3 2 1 2 2 3 3 3 3 2 2 2
7 7 6 6 4 4 3 2 2 2 1 1 1 1 1 2 2 3 3 2 2 2 3 3 2 2 1 2 3 3 2 3 2 1 1 2 2 2 3 4 3 3 2
8 8 7 6 5 4 4 3 3 2 2 2 1 1 1 2 2 3 3 3 2 2 2 2 2 3 2 1 1 3 3 2 1 2 1 1 1 2 2 2 3 3 3
8 7 6 5 5 4 5 4 5 3 2 1 1 0 1 1 2 2 3 3 3 2 2 2 2 2 3 1 1 1 2 4 3 0 2 1 1 1 2 3 3 3 3
7 7 6 5 4 4 4 5 4 3 2 1 1 1 1 1 1 1 2 2 2 2 2 2 2 2 2 2 1 1 1 1 2 3 1 1 1 1 2 3 3 3 3
7 6 6 5 3 3 4 4 4 4 3 3 2 1 0 0 1 1 2 1 1 2 2 2 2 2 2 2 2 2 2 2 2 2 2 1 1 2 1 1 2 3 3
Wind_Direction
152 157 135 127 122 117 113 110 105 101 97 93 91 90 90 90 89 90 89 87 93 101 104 108 115 117 121 124 125 126 131 133 136 137 135 134 135 135 134 131 126 123 125
151 152 137 130 126 121 118 114 110 106 101 96 93 91 91 92 89 89 89 86 95 103 104 105 108 118 124 125 127 129 131 131 137 139 137 137 137 138 135 133 130 127 129
142 146 140 135 131 127 123 120 116 111 106 102 98 95 93 94 95 94 93 88 92 100 106 103 105 118 123 126 126 123 122 127 133 139 137 136 139 141 139 136 134 130 131
142 144 140 138 135 132 128 125 121 117 113 109 104 101 99 96 97 99 97 95 94 99 108 108 107 109 113 121 123 119 119 120 125 138 137 134 141 141 140 138 138 135 135
138 139 141 137 136 133 131 130 127 123 119 116 113 109 106 100 94 97 101 100 102 104 109 108 108 108 108 108 113 117 119 120 125 123 124 135 139 146 143 141 142 140 137
134 134 137 137 138 137 135 133 130 128 125 122 119 116 112 106 101 98 102 106 107 107 108 106 102 110 106 104 104 114 118 119 121 116 137 149 149 148 145 144 144 144 140
132 134 138 142 142 141 140 138 135 132 131 129 125 122 117 111 110 109 108 108 115 115 112 111 104 101 101 102 101 108 116 127 128 132 151 158 154 149 146 144 142 143 143
140 140 144 152 151 149 146 144 143 139 135 133 129 125 118 112 112 113 114 114 123 128 124 121 115 106 102 102 98 112 120 128 138 147 151 160 156 151 148 144 141 142 141
139 142 146 155 155 156 155 154 152 147 144 140 136 132 127 129 132 133 137 145 155 157 148 145 138 129 114 121 119 119 120 130 132 141 143 149 150 147 145 142 141 143 140
138 145 150 155 156 160 161 160 157 157 153 148 148 149 147 156 164 177 186 184 188 184 173 173 163 147 128 130 124 117 112 119 120 123 123 141 146 145 141 141 142 142 139
136 152 155 156 160 165 164 164 160 160 159 156 159 165 169 208 223 227 218 206 206 209 206 205 197 163 140 123 112 106 106 96 109 117 127 140 145 145 144 145 145 144 142
149 164 166 165 163 163 167 154 154 156 156 163 185 204 217 234 238 237 240 229 227 227 223 216 200 166 146 104 108 99 89 103 108 123 135 143 146 145 145 145 145 146 146
159 165 170 173 165 161 155 147 152 153 155 176 182 180 183 206 294 314 304 279 264 248 250 225 203 174 145 129 119 106 107 104 109 123 140 145 145 146 146 146 147 147 149
157 167 172 171 164 160 149 153 156 156 162 170 195 165 132 102 8 313 284 268 281 282 274 186 152 148 137 133 126 116 114 112 112 118 144 146 145 146 147 147 149 149 149
158 163 166 169 164 161 151 159 157 163 165 175 169 168 138 132 138 284 263 167 322 339 27 83 122 128 128 128 125 125 124 120 125 120 141 149 147 147 148 149 150 150 148
156 159 159 159 166 160 154 161 161 162 160 148 135 147 132 114 94 58 58 116 91 36 66 90 104 115 118 120 114 117 120 125 123 133 141 154 153 154 156 155 154 152 151
155 156 156 155 153 152 147 149 146 148 142 129 133 134 116 96 91 82 74 71 66 62 70 76 78 84 93 97 96 106 113 119 134 139 140 136 150 160 159 155 154 157 161
149 148 153 149 143 146 141 135 131 130 133 134 134 130 117 96 93 81 76 69 64 71 74 82 80 80 78 82 83 89 105 120 132 142 135 131 135 150 162 161 162 161 166
152 149 145 138 143 142 134 126 122 118 124 135 123 118 130 106 97 95 83 70 76 73 67 86 81 94 94 88 90 83 92 113 132 139 139 144 141 136 143 157 163 168 171
145 140 136 136 140 135 120 105 95 88 89 98 112 125 133 122 111 103 96 72 79 78 65 75 87 78 94 102 93 72 67 91 116 128 150 150 151 156 154 160 165 177 179
135 131 130 129 133 127 119 118 117 117 120 95 95 91 89 106 118 111 101 84 80 87 83 89 98 89 80 93 85 59 33 40 63 106 133 139 157 165 159 166 165 171 194
141 138 135 136 136 134 131 136 140 135 122 118 60 56 67 100 127 127 116 113 100 93 77 75 91 98 91 95 112 104 58 15 1 10 93 138 157 159 168 180 175 175 184
149 152 151 150 145 140 131 113 100 76 58 48 37 33 7 82 114 123 131 126 115 108 112 109 113 120 132 62 110 137 141 178 294 337 348 127 148 158 178 179 179 177 182
159 152 147 145 138 139 134 130 130 131 141 184 180 155 34 58 84 105 127 138 135 125 130 143 125 127 130 125 43 70 141 152 147 177 330 325 200 175 187 189 186 187 184
147 143 141 135 133 138 136 142 139 136 148 145 116 94 66 32 52 88 102 114 143 148 149 144 131 126 131 142 143 119 87 82 117 140 194 289 314 250 212 205 191 195 195
145 140 136 129 134 139 143 148 145 145 142 130 121 111 87 26 18 51 93 98 148 162 169 169 158 140 146 141 143 137 142 147 161 147 169 207 240 270 242 211 198 202 198